This demonstration page uses our WeatherBlox Daily Observations layout. Learn more.

39.92423, -83.80882

Hourly Observations for September 6, 2016

Temp ( °F °C ) Dew Point ( °F °C ) Humidity (%) Winds ( mph kmh ) Pressure ( in mb ) Visibility ( mi km ) Precip ( " mm )
12:56 am 00:56 Mostly Clear 70 21.1 63 17.2 79 79 S 6 9 30.19 1022 10 16.0934 0 0
1:56 am 01:56 Mostly Cloudy 70 21.1 63 17.2 79 79 S 5 7 30.19 1022 10 16.0934 0 0
2:56 am 02:56 Clear 69 20.6 63 17.2 81 81 S 6 9 30.18 1022 10 16.0934 0 0
3:56 am 03:56 Clear 67 19.4 63 17.2 87 87 SSW 3 6 30.17 1022 10 16.0934 0 0
4:56 am 04:56 Partly Cloudy 66 18.9 63 17.2 90 90 SW 6 9 30.17 1022 10 16.0934 0 0
5:56 am 05:56 Clear 65 18.3 63 17.2 93 93 SW 5 7 30.17 1022 10 16.0934 0 0
6:56 am 06:56 Clear 65 18.3 63 17.2 93 93 SW 3 6 30.18 1022 10 16.0934 0 0
7:56 am 07:56 Sunny 66 18.9 64 17.8 93 93 SSW 3 6 30.19 1022 10 16.0934 0 0
8:56 am 08:56 Sunny 72 22.2 67 19.4 84 84 SW 6 9 30.19 1022 10 16.0934 0 0
9:56 am 09:56 Sunny 77 25 69 20.6 77 77 WSW 7 11 30.19 1022 10 16.0934 0 0
10:56 am 10:56 Sunny 82 27.8 71 21.7 69 69 WSW 9 15 30.19 1022 10 16.0934 0 0
11:56 am 11:56 Sunny 84 28.9 70 21.1 63 63 WSW 13 20 30.2 1023 10 16.0934 0 0
12:56 pm 12:56 Sunny 86 30 71 21.7 61 61 W 13 20 30.19 1022 10 16.0934 0 0
1:56 pm 13:56 Mostly Sunny 86 30 71 21.7 61 61 SW 10 17 30.18 1022 10 16.0934 0 0
2:56 pm 14:56 Mostly Sunny 88 31.1 72 22.2 59 59 WSW 8 13 30.16 1022 10 16.0934 0 0
3:56 pm 15:56 Mostly Sunny 88 31.1 71 21.7 57 57 WSW 9 15 30.14 1021 10 16.0934 0 0
4:56 pm 16:56 Mostly Sunny 87 30.6 70 21.1 57 57 WSW 8 13 30.13 1020 10 16.0934 0 0
5:56 pm 17:56 Sunny 86 30 69 20.6 57 57 WSW 13 20 30.12 1020 10 16.0934 0 0
6:56 pm 18:56 Sunny 83 28.3 70 21.1 65 65 WSW 8 13 30.11 1020 10 16.0934 0 0
7:56 pm 19:56 Sunny 77 25 69 20.6 77 77 WSW 6 9 30.11 1020 10 16.0934 0 0
8:56 pm 20:56 Clear 74 23.3 68 20 82 82 WSW 6 9 30.12 1020 10 16.0934 0 0
9:56 pm 21:56 Clear 73 22.8 67 19.4 81 81 WSW 6 9 30.13 1020 10 16.0934 0 0
10:56 pm 22:56 Clear 74 23.3 67 19.4 79 79 SSW 3 6 30.14 1021 10 16.0934 0 0
11:56 pm 23:56 Clear 72 22.2 67 19.4 84 84 SW 6 9 30.13 1020 10 16.0934 0 0

Powered by AerisWeather